Regional Weather Roundup
Issued by NWS

Home | Current Version | Previous Version | Text Only | Print | Product List | Glossary On
Versions: 1 2 3 4 5 6 7 8 9 10 11 12 13 14 15 16 17 18 19 20 21 22 23 24 25 26 27 28 29 30 31 32 33 34 35 36 37 38 39 40 41 42 43 44 45 46 47 48 49 50
000
ASUS45 KPSR 232210
RWRAZ

ARIZONA REGIONAL HOURLY WEATHER ROUNDUP
NATIONAL WEATHER SERVICE TUCSON AZ
300 PM MST FRI JUN 23 2017

NOTE: FAIR INDICATES FEW OR NO CLOUDS BELOW 12,000 FEET WITH NO
SIGNIFICANT WEATHER AND/OR OBSTRUCTIONS TO VISIBILITY.

AZZ001>003-036-232300-
NORTHWEST ARIZONA

CITY           SKY/WX    TMP DP  RH WIND       PRES   REMARKS
BULLHEAD CITY  SUNNY    115  43   9 SW7G14    29.67F HX 109
KINGMAN        SUNNY    106  41  11 SW14G25   29.93F HX 100
$$

AZZ004>008-015-016-018-232300-
NORTH CENTRAL ARIZONA

CITY           SKY/WX    TMP DP  RH WIND       PRES   REMARKS
GRAND CANYON   MOSUNNY   93  21   7 NW10      30.20F
PRESCOTT       SUNNY    100  28   8 VRB3      30.06F
FLAGSTAFF      PTSUNNY   87  25  10 S8        30.21F
PAYSON         PTCLDY    99  36  11 SW15G22   30.09S
PAGE           SUNNY    102  28   7 VRB5      29.94F
$$

AZZ009>014-017-232300-
NORTHEAST ARIZONA

CITY           SKY/WX    TMP DP  RH WIND       PRES   REMARKS
WINSLOW        SUNNY    101  19   5 MISG      30.02F
SAINT JOHNS    SUNNY     98  19   6 N15G22    30.08F
WINDOW ROCK    SUNNY     93  25   8 NW15G22   30.19F
SHOW LOW       SUNNY     91  18   6 SW3       30.17F
$$

AZZ023-232300-
GREATER PHOENIX AREA

CITY           SKY/WX    TMP DP  RH WIND       PRES   REMARKS
PHOENIX        MOSUNNY  111  47  12 NW17G23   29.73F HX 107
BUCKEYE          N/A    109  45  11 SW9G17    29.74F HX 104
GLENDALE       MOSUNNY  109  48  13 S14G22    29.75F HX 106
LUKE AFB       SUNNY    109  49  13 SW18      29.72F HX 106
DEER VALLEY    SUNNY    107  51  15 W10G16    29.76F HX 104
SCOTTSDALE     SUNNY    107  49  14 SW10      29.78F HX 104
MESA-FALCON    SUNNY    108  55  18 W10G16    29.77F HX 106
MESA-GATEWAY   SUNNY    106  54  17 NW7       29.77F HX 104
CHANDLER       SUNNY    108  50  14 VRB6      29.75F HX 104
$$

AZZ027-028-232300-
SOUTHWEST MARICOPA COUNTY AND PINAL COUNTY

CITY           SKY/WX    TMP DP  RH WIND       PRES   REMARKS
CASA GRANDE    SUNNY    108  50  14 W17G23    29.77F HX 105
$$

AZZ503-504-507>509-232300-
SOUTHEAST ARIZONA

CITY           SKY/WX    TMP DP  RH WIND       PRES   REMARKS
TUCSON         SUNNY    109  39   9 N17G24    29.87F HX 103
DAVIS-MONTHAN  SUNNY    107  38  10 N15G25    29.85F HX 100
RYAN FIELD     CLEAR    108  39   9 N12G20    29.86F HX 101
NOGALES        SUNNY    105  44  12 W14G20    29.96F HX 100
SIERRA VISTA   SUNNY    101  37  10 N10       30.04F
DOUGLAS        SUNNY    102  38  11 NW10G21   29.94F
SAFFORD        SUNNY    109  24   5 W10G26    29.81F HX 100
$$

AZZ020-021-025-026-031-232300-
SOUTHWEST ARIZONA

CITY           SKY/WX    TMP DP  RH WIND       PRES   REMARKS
YUMA           MOSUNNY  108  51  15 S10       29.71F HX 105
$$

CAZ031-033-041-043-047-048-061-232300-
SOUTHERN CALIFORNIA

CITY           SKY/WX    TMP DP  RH WIND       PRES   REMARKS
DOWNTOWN L.A.  SUNNY     73  61  65 W6        29.90S
L.A. AIRPORT   PTSUNNY   69  60  73 W13       29.91F
SAN DIEGO      PTSUNNY   72  61  68 N8        29.92F
BURBANK        SUNNY     79  60  52 S13       29.89S
ONTARIO        MOSUNNY   89  60  37 W15       29.87F
RIVERSIDE      SUNNY     90  61  37 W12G21    29.87S
PALM SPRINGS   SUNNY    113  43   9 VRB6      29.72F HX 107
EL CENTRO NAS  MOSUNNY  107  55  18 SE9       29.69F HX 106
IMPERIAL       MOSUNNY  109  64  23 SE9G16    29.67F HX 113
BLYTHE         MOSUNNY  112  53  14 S21G28    29.70F HX 110
NEEDLES        MOSUNNY  118  41   7 VRB7G18   29.69F HX 111
$$

NVZ020-UTZ003-232300-
SOUTHERN NEVADA-UTAH

CITY           SKY/WX    TMP DP  RH WIND       PRES   REMARKS
LAS VEGAS      MOSUNNY  110  20   4 E3        29.80F HX 101
SALT LAKE CITY SUNNY     83  31  15 N15       30.13F
$$

NMZ009-TXZ055-232300-
NEW MEXICO-WEST TEXAS

CITY           SKY/WX    TMP DP  RH WIND       PRES   REMARKS
ALBUQUERQUE    PTSUNNY   98  13   4 SW7G20    30.02F
EL PASO        MOSUNNY  110  12   3 N10G20    29.84F HX 100
$$


........................KEY........................
SKY/WX - SKY CONDITION/WEATHER
TMP    - TEMPERATURE IN FAHRENHEIT
DP     - DEWPOINT IN FAHRENHEIT
RH     - RELATIVE HUMIDITY IN PERCENT
WIND   - DIRECTION AND SPEED IN MILES PER HOUR (MPH)
VRB    - VARIABLE WIND DIRECTION
PRES   - MEAN SEA LEVEL PRESSURE IN INCHES OF MERCURY
         F - FALLING PRESSURE   R - RISING PRESSURE
         S - STEADY PRESSURE
VSB    - VISIBILITY IN MILES
HX     - HEAT INDEX IN FAHRENHEIT
WCI    - WIND CHILL INDEX IN FAHRENHEIT
TC     - TEMPERATURE IN CELSIUS WHICH IS ALSO KNOWN AS
         TEMPERATURE IN CENTIGRADE
AFB    - AIR FORCE BASE
         LUKE AFB IS LUKE AIR FORCE BASE
         DAVIS-MONTHAN IS DAVIS-MONTHAN AIR FORCE BASE
NAS    - NAVAL AIR STATION
         EL CENTRO NAS IS EL CENTRO NAVAL AIR STATION
N/A    - NOT AVAILABLE




USA.gov is the U.S. government's official web portal to all federal, state and local government web resources and services.